Tracking 23114 objects as of 15-May-2021
HD Live streaming from Space Station
objects crossing your sky now

THOR ABLESTAR R/B

Track THOR ABLESTAR R/B now!
10-day predictions


NORAD ID: 447
Int'l Code: 1962-060B
Perigee: 1,070.6 km
Apogee: 1,169.3 km
Inclination: 50.1 °
Period: 107.5 minutes
Semi major axis: 7490 km
RCS: 3.8837 m2 (large)
Launch date: October 31, 1962
Source: United States (US)
Launch site: AIR FORCE EASTERN TEST RANGE (AFETR)

Note: This is a ROCKET BODY
aabbcc
Your satellite tracking list
Your tracking list is empty




NASA's NSSDC Master Catalog

Two Line Element Set (TLE):
1 00447U 62060B   21134.34587297 -.00000140  00000-0 -21121-4 0  9993
2 00447  50.1297  88.6720 0065917  16.7427 145.3105 13.39052754862898
Source of the keplerian elements: AFSPC